CW3643 Weather Reports


time (UTC)temp
C
wind
direction
speed
KPH
gust
KPH
rain 1hr
cm
rain 24hr
cm
rain mn
cm
humidity
%
barometer
mb
20260905055515 25 0.0 0.0 0.00 0.00 0.00 62 1017.1
20260905055016 25 0.0 0.0 0.00 0.00 0.00 62 1017.1
20260905054551 25 0.0 0.0 0.00 0.00 0.00 62 1017.0
20260905054056 25 0.0 0.0 0.00 0.00 0.00 62 1017.1
20260905053514 24 0.0 0.0 0.00 0.00 0.00 62 1017.0
20260905052524 24 0.0 0.0 0.00 0.00 0.00 63 1017.1
20260905052032 24 0.0 0.0 0.00 0.00 0.00 63 1017.0
20260905051539 24 0.0 0.0 0.00 0.00 0.00 63 1017.0
20260905051024 24 0.0 0.0 0.00 0.00 0.00 63 1017.1
20260905050533 24 0.0 0.0 0.00 0.00 0.00 63 1017.0
20260905050016 24 0.0 0.0 0.00 0.00 0.00 63 1017.1
20260905045516 24 0.0 0.0 0.00 0.00 0.00 63 1017.2
20260905045023 24 0.0 0.0 0.00 0.00 0.00 63 1017.3
20260905044512 24 0.0 0.0 0.00 0.00 0.00 63 1017.3
20260905044018 24 0.0 0.0 0.00 0.00 0.00 62 1017.3
20260905043526 24 0.0 0.0 0.00 0.00 0.00 62 1017.3
20260905043014 24 0.0 0.0 0.00 0.00 0.00 62 1017.3
20260905042511 24 0.0 0.0 0.00 0.00 0.00 62 1017.3
20260905042019 24 0.0 0.0 0.00 0.00 0.00 62 1017.2
20260905041547 25 0.0 0.0 0.00 0.00 0.00 61 1017.2
20260905041033 25 0.0 0.0 0.00 0.00 0.00 61 1017.3
20260905040541 25 0.0 0.0 0.00 0.00 0.00 61 1017.3
20260905040016 25 0.0 0.0 0.00 0.00 0.00 61 1017.1
20260905035514 25 0.0 0.0 0.00 0.00 0.00 61 1017.2
20260905035040 24 0.0 0.0 0.00 0.00 0.00 61 1017.1
20260905034025 24 0.0 0.0 0.00 0.00 0.00 62 1017.0
20260905033520 24 0.0 0.0 0.00 0.00 0.00 62 1017.0
20260905033016 24 0.0 0.0 0.00 0.00 0.00 62 1017.1
20260905032524 25 0.0 0.0 0.00 0.00 0.00 62 1017.1
20260905032025 25 0.0 0.0 0.00 0.00 0.00 61 1017.0
20260905031513 25 0.0 0.0 0.00 0.00 0.00 60 1017.1
20260905031019 25 0.0 0.0 0.00 0.00 0.00 60 1017.1
20260905030530 25 0.0 0.0 0.00 0.00 0.00 59 1017.1
20260905030030 25 0.0 0.0 0.00 0.00 0.00 58 1017.1
20260905025511 25 0.0 0.0 0.00 0.00 0.00 57 1017.1
20260905025019 25 0.0 0.0 0.00 0.00 0.00 56 1017.2
20260905024525 25 0.0 0.0 0.00 0.00 0.00 56 1017.2
20260905024032 25 0.0 0.0 0.00 0.00 0.00 56 1017.2
20260905023519 25 0.0 0.0 0.00 0.00 0.00 56 1017.2
20260905022518 25 0.0 0.0 0.00 0.00 0.00 58 1017.2
20260905022041 25 0.0 0.0 0.00 0.00 0.00 60 1017.4
20260905021521 24 0.0 0.0 0.00 0.00 0.00 61 1017.5
20260905021055 25 0.0 0.0 0.00 0.00 0.00 61 1017.4
20260905020518 25 0.0 0.0 0.00 0.00 0.00 61 1017.6
20260905020025 24 0.0 0.0 0.00 0.00 0.00 61 1017.6
20260905015546 25 0.0 0.0 0.00 0.00 0.00 61 1017.6
20260905015039 25 0.0 0.0 0.00 0.00 0.00 58 1017.4
20260905014517 25 0.0 0.0 0.00 0.00 0.00 58 1017.2
20260905014025 25 0.0 0.0 0.00 0.00 0.00 59 1017.3
20260905013522 25 0.0 0.0 0.00 0.00 0.00 60 1017.4
20260905012526 25 0.0 0.0 0.00 0.00 0.00 58 1017.6
20260905012027 25 0.0 0.0 0.00 0.00 0.00 57 1017.5
20260905011536 25 0.0 0.0 0.00 0.00 0.00 56 1017.6
20260905011022 25 0.0 0.0 0.00 0.00 0.00 56 1017.6
20260905010511 25 0.0 0.0 0.00 0.00 0.00 55 1017.7
20260905010018 26 0.0 0.0 0.00 0.00 0.00 55 1017.7
20260905005526 26 0.0 0.0 0.00 0.00 0.00 55 1017.6
20260905005034 26 0.0 0.0 0.00 0.00 0.00 56 1017.7
20260905004515 26 0.0 0.0 0.00 0.00 0.00 57 1017.9
20260905004019 25 0.0 0.0 0.00 0.00 0.00 59 1018.0
20260905003519 25 0.0 0.0 0.00 0.00 0.00 59 1018.1
20260905003055 25 0.0 0.0 0.00 0.00 0.00 59 1018.1
20260905002534 26 0.0 0.0 0.00 0.00 0.00 60 1018.2
20260905002014 26 0.0 0.0 0.00 0.00 0.00 60 1018.2
20260905001523 26 0.0 0.0 0.00 0.00 0.00 60 1018.2
20260905001016 26 0.0 0.0 0.00 0.00 0.00 60 1018.2
20260905000526 26 0.0 0.0 0.00 0.00 0.00 60 1018.1
20260905000013 26 0.0 0.0 0.00 0.00 0.00 60 1018.2
20260904235543 26 0.0 0.0 0.00 0.00 0.00 60 1018.2
20260904235028 26 0.0 0.0 0.00 0.00 0.00 60 1018.2
20260904234515 26 0.0 0.0 0.00 0.00 0.00 61 1018.3
20260904234012 25 0.0 0.0 0.00 0.00 0.00 61 1018.4
20260904233518 25 0.0 0.0 0.00 0.00 0.00 62 1018.4
20260904233029 25 0.0 0.0 0.00 0.00 0.00 62 1018.5
20260904232529 25 0.0 0.0 0.00 0.00 0.00 62 1018.5
20260904232017 25 0.0 0.0 0.00 0.00 0.00 62 1018.5
20260904231525 25 0.0 0.0 0.00 0.00 0.00 62 1018.4
20260904231025 26 0.0 0.0 0.00 0.00 0.00 61 1018.3
20260904230522 26 0.0 0.0 0.00 0.00 0.00 60 1018.4
20260904230031 26 0.0 0.0 0.00 0.00 0.00 59 1018.3
20260904225532 26 0.0 0.0 0.00 0.00 0.00 59 1018.2
20260904225019 26 0.0 0.0 0.00 0.00 0.00 60 1018.4
20260904224543 26 0.0 0.0 0.00 0.00 0.00 60 1018.4
20260904224023 26 0.0 0.0 0.00 0.00 0.00 60 1018.5
20260904223518 26 0.0 0.0 0.00 0.00 0.00 60 1018.4
20260904223026 26 0.0 0.0 0.00 0.00 0.00 61 1018.3
20260904222528 26 0.0 0.0 0.00 0.00 0.00 62 1018.3
20260904222037 26 0.0 0.0 0.00 0.00 0.00 63 1018.5
20260904221518 26 0.0 0.0 0.00 0.00 0.00 63 1018.5
20260904221025 26 0.0 0.0 0.00 0.00 0.00 64 1018.5
20260904220534 27 0.0 0.0 0.00 0.00 0.00 64 1018.5
20260904220013 27 0.0 0.0 0.00 0.00 0.00 64 1018.4
20260904215521 27 0.0 0.0 0.00 0.00 0.00 64 1018.4
20260904215050 27 0.0 0.0 0.00 0.00 0.00 62 1018.5
20260904214018 27 0.0 0.0 0.00 0.00 0.00 63 1018.4
20260904213529 28 0.0 0.0 0.00 0.00 0.00 61 1018.5
20260904213028 28 0.0 0.0 0.00 0.00 0.00 58 1018.5
20260904212557 28 0.0 0.0 0.00 0.00 0.00 55 1018.6
20260904212017 29 0.0 0.0 0.00 0.00 0.00 50 1018.6
20260904211526 30 0.0 0.0 0.00 0.00 0.00 40 1018.6
20260904211032 30 0.0 0.0 0.00 0.00 0.00 39 1018.5
20260904210514 30 0.0 0.0 0.00 0.00 0.00 38 1018.5
20260904210023 30 0.0 0.0 0.00 0.00 0.00 38 1018.5
20260904205524 30 0.0 0.0 0.00 0.00 0.00 38 1018.5
20260904205012 30 0.0 0.0 0.00 0.00 0.00 37 1018.5
20260904204513 30 0.0 0.0 0.00 0.00 0.00 38 1018.5
20260904204021 30 0.0 0.0 0.00 0.00 0.00 39 1018.4
20260904203523 30 0.0 0.0 0.00 0.00 0.00 40 1018.4
20260904203018 30 0.0 0.0 0.00 0.00 0.00 40 1018.4
20260904202519 30 0.0 0.0 0.00 0.00 0.00 41 1018.3
20260904202019 30 0.0 0.0 0.00 0.00 0.00 40 1018.3
20260904201525 30 0.0 0.0 0.00 0.00 0.00 40 1018.3
20260904201011 30 0.0 0.0 0.00 0.00 0.00 40 1018.3
20260904200529 30 0.0 0.0 0.00 0.00 0.00 40 1018.3
20260904200027 30 0.0 0.0 0.00 0.00 0.00 40 1018.2
20260904195527 30 0.0 0.0 0.00 0.00 0.00 40 1018.1
20260904195019 30 0.0 0.0 0.00 0.00 0.00 40 1018.0
20260904194026 30 0.0 0.0 0.00 0.00 0.00 41 1017.9
20260904193553 30 0.0 0.0 0.00 0.00 0.00 42 1017.9
20260904193013 30 0.0 0.0 0.00 0.00 0.00 43 1017.9
20260904192514 30 0.0 0.0 0.00 0.00 0.00 44 1017.7
20260904192022 30 0.0 0.0 0.00 0.00 0.00 46 1017.7
20260904191021 29 334 4.8 6.4 0.00 0.00 0.00 52 1017.7
20260904190529 29 350 4.8 6.4 0.00 0.00 0.00 53 1017.7
20260904190036 28 19 0.0 4.8 0.00 0.00 0.00 56 1017.7
20260904185515 29 135 0.0 0.0 0.00 0.00 0.00 56 1017.7
20260904185023 29 135 0.0 0.0 0.00 0.00 0.00 55 1017.7
20260904184523 30 135 0.0 3.2 0.00 0.00 0.00 55 1017.7
20260904184036 30 135 0.0 4.8 0.00 0.00 0.00 55 1017.7
20260904183537 30 132 1.6 8.0 0.00 0.00 0.00 53 1017.9
20260904183020 31 232 1.6 9.7 0.00 0.00 0.00 48 1018.0
20260904182527 30 29 4.8 12.9 0.00 0.00 0.00 45 1018.0
20260904182029 30 343 6.4 12.9 0.00 0.00 0.00 46 1018.1
20260904181517 30 343 3.2 6.4 0.00 0.00 0.00 48 1018.0
20260904181016 30 8 1.6 9.7 0.00 0.00 0.00 49 1018.0
20260904180527 30 355 3.2 9.7 0.00 0.00 0.00 50 1018.0
20260904180015 30 20 4.8 9.7 0.00 0.00 0.00 50 1018.0
20260904175522 30 22 1.6 9.7 0.00 0.00 0.00 50 1018.0
20260904175030 30 12 4.8 8.0 0.00 0.00 0.00 50 1018.1
20260904174024 29 1 4.8 6.4 0.00 0.00 0.00 50 1018.3
20260904173532 28 296 3.2 4.8 0.00 0.00 0.00 52 1018.3
20260904173013 28 290 0.0 9.7 0.00 0.00 0.00 54 1018.4
20260904172517 28 290 3.2 9.7 0.00 0.00 0.00 55 1018.4
20260904172044 28 230 3.2 6.4 0.00 0.00 0.00 59 1018.4
20260904171511 28 170 4.8 6.4 0.00 0.00 0.00 59 1018.5
20260904171011 28 128 1.6 3.2 0.00 0.00 0.00 58 1018.5
20260904170520 28 127 0.0 3.2 0.00 0.00 0.00 58 1018.5
20260904170029 28 126 0.0 4.8 0.00 0.00 0.00 58 1018.6
20260904165529 28 126 1.6 4.8 0.00 0.00 0.00 58 1018.6
20260904164521 28 42 0.0 3.2 0.00 0.00 0.00 56 1018.6
20260904164029 28 42 0.0 12.9 0.00 0.00 0.00 57 1018.8
20260904163536 28 42 1.6 17.7 0.00 0.00 0.00 52 1018.8
20260904163016 30 100 8.0 17.7 0.00 0.00 0.00 50 1018.9
20260904162524 30 60 3.2 6.4 0.00 0.00 0.00 48 1018.9
20260904162032 29 359 3.2 6.4 0.00 0.00 0.00 48 1019.0
20260904161513 29 240 0.0 8.0 0.00 0.00 0.00 51 1019.2
20260904161015 29 257 4.8 14.5 0.00 0.00 0.00 51 1019.0
20260904160525 29 305 6.4 19.3 0.00 0.00 0.00 51 1019.0
20260904160033 29 353 12.9 20.9 0.00 0.00 0.00 51 1018.7
20260904155532 28 190 12.9 22.5 0.00 0.00 0.00 52 1018.6
20260904155020 27 190 14.5 25.7 0.00 0.00 0.00 56 1018.6
20260904154607 28 190 14.5 25.7 0.00 0.00 0.00 58 1018.9
20260904154017 28 190 17.7 25.7 0.00 0.00 0.00 56 1019.0
20260904153525 28 190 16.1 25.7 0.00 0.00 0.00 56 1019.4
20260904153026 28 261 19.3 27.4 0.00 0.00 0.00 55 1020.4
20260904152523 28 253 12.9 19.3 0.00 0.00 0.00 54 1020.7
20260904152011 28 251 9.7 24.1 0.00 0.00 0.00 54 1020.6
20260904151519 28 251 16.1 24.1 0.00 0.00 0.00 55 1020.6
20260904151046 28 262 12.9 19.3 0.00 0.00 0.00 56 1020.6
20260904150530 29 243 12.9 22.5 0.00 0.00 0.00 56 1020.5
20260904150016 28 257 12.9 22.5 0.00 0.00 0.00 58 1020.4
20260904145537 28 266 6.4 17.7 0.00 0.00 0.00 59 1020.3
20260904145011 28 217 9.7 14.5 0.00 0.00 0.00 59 1020.4
20260904144513 28 247 3.2 11.3 0.00 0.00 0.00 60 1020.4
20260904144021 28 228 1.6 11.3 0.00 0.00 0.00 61 1020.4
20260904143524 27 217 3.2 8.0 0.00 0.00 0.00 62 1020.3
20260904143013 27 217 4.8 8.0 0.00 0.00 0.00 63 1020.3
20260904142534 27 225 3.2 12.9 0.00 0.00 0.00 64 1020.2
20260904142021 27 190 8.0 20.9 0.00 0.00 0.00 65 1020.2
20260904141529 27 157 8.0 29.0 0.00 0.00 0.00 65 1020.5
20260904141036 27 177 20.9 37.0 0.00 0.00 0.00 64 1020.5
20260904140524 29 204 24.1 37.0 0.00 0.00 0.00 61 1020.3
20260904140019 29 153 9.7 17.7 0.00 0.00 0.00 58 1019.9
20260904135526 28 233 3.2 12.9 0.00 0.00 0.00 60 1019.5
20260904135034 28 1 4.8 12.9 0.00 0.00 0.00 61 1019.2
20260904134515 28 17 6.4 16.1 0.00 0.00 0.00 64 1019.1
20260904134022 27 353 4.8 16.1 0.00 0.00 0.00 65 1019.0
20260904133525 27 315 9.7 14.5 0.00 0.00 0.00 66 1019.1
20260904133112 27 5 6.4 9.7 0.00 0.00 0.00 65 1019.6
20260904132526 27 62 3.2 6.4 0.00 0.00 0.00 65 1020.0
20260904131543 27 144 0.0 9.7 0.00 0.00 0.00 65 1020.6
20260904131021 27 147 6.4 12.9 0.00 0.00 0.00 65 1020.7
20260904130530 27 170 11.3 12.9 0.00 0.00 0.00 65 1020.9
20260904130016 27 165 3.2 6.4 0.00 0.00 0.00 66 1020.4
20260904125024 26 247 0.0 6.4 0.00 0.00 0.00 67 1020.4
20260904124017 26 301 0.0 8.0 0.00 0.00 0.00 67 1020.8
20260904123525 26 68 1.6 6.4 0.00 0.00 0.00 67 1020.5
20260904123033 26 55 3.2 6.4 0.00 0.00 0.00 67 1020.5
20260904122530 26 129 0.0 4.8 0.00 0.00 0.00 67 1020.7
20260904122037 26 159 0.0 4.8 0.00 0.00 0.00 67 1020.7
20260904121518 26 157 0.0 4.8 0.00 0.00 0.00 68 1020.7
20260904121045 26 87 0.0 0.0 0.00 0.00 0.00 69 1020.5
20260904120534 26 88 0.0 4.8 0.00 0.00 0.00 69 1020.4
20260904120026 26 105 1.6 6.4 0.00 0.00 0.00 70 1020.6
20260904115534 25 118 3.2 6.4 0.00 0.00 0.00 71 1020.7
20260904115041 25 63 0.0 4.8 0.00 0.00 0.00 72 1020.7
20260904114028 25 62 3.2 9.7 0.00 0.00 0.00 73 1020.8
20260904113514 25 49 3.2 9.7 0.00 0.00 0.00 72 1020.6
20260904113022 25 9 3.2 9.7 0.00 0.00 0.00 73 1020.6
20260904112542 25 72 3.2 6.4 0.00 0.00 0.00 73 1020.7
20260904112027 25 95 0.0 3.2 0.00 0.00 0.00 75 1020.9
20260904111515 24 93 0.0 3.2 0.00 0.00 0.00 76 1020.8
20260904111011 24 91 0.0 3.2 0.00 0.00 0.00 76 1021.0
20260904110547 24 91 0.0 4.8 0.00 0.00 0.00 76 1021.1
20260904110054 24 208 1.6 4.8 0.00 0.00 0.00 77 1021.1
20260904105514 24 209 1.6 4.8 0.00 0.00 0.00 77 1021.1
20260904104511 24 190 0.0 8.0 0.00 0.00 0.00 78 1020.9
20260904104026 24 190 4.8 11.3 0.00 0.00 0.00 77 1020.9
20260904103534 24 190 0.0 12.9 0.00 0.00 0.00 77 1020.8
20260904103015 24 190 6.4 12.9 0.00 0.00 0.00 76 1020.7
20260904102516 24 190 6.4 17.7 0.00 0.00 0.00 75 1020.7
20260904102024 24 190 4.8 17.7 0.00 0.00 0.00 74 1020.3
20260904101513 24 190 6.4 19.3 0.00 0.00 0.00 73 1019.6
20260904101012 25 78 9.7 20.9 0.00 0.00 0.00 71 1019.3
20260904100521 25 190 14.5 20.9 0.00 0.00 0.00 69 1019.1
20260904100045 25 190 6.4 14.5 0.00 0.00 0.00 68 1019.0
20260904095525 25 190 4.8 9.7 0.00 0.00 0.00 66 1019.4
20260904095012 25 190 1.6 4.8 0.00 0.00 0.00 66 1019.8
20260904094539 25 190 1.6 8.0 0.00 0.00 0.00 66 1019.8
20260904094025 25 190 3.2 9.7 0.00 0.00 0.00 67 1020.1
20260904093550 25 190 1.6 11.3 0.00 0.00 0.00 67 1020.4
20260904093017 25 190 8.0 11.3 0.00 0.00 0.00 66 1019.6
20260904092517 25 190 1.6 6.4 0.00 0.00 0.00 66 1020.1
20260904092024 25 190 3.2 11.3 0.00 0.00 0.00 66 1020.1
20260904091548 25 190 6.4 11.3 0.00 0.00 0.00 66 1020.1
20260904091013 25 190 3.2 11.3 0.00 0.00 0.00 66 1020.7
20260904090542 25 190 3.2 14.5 0.00 0.00 0.00 66 1020.4
20260904090037 25 190 8.0 14.5 0.00 0.00 0.00 66 1019.8
20260904085516 25 190 6.4 14.5 0.00 0.00 0.00 66 1020.1
20260904085051 25 190 8.0 14.5 0.00 0.00 0.00 66 1020.4
20260904084537 25 190 8.0 12.9 0.00 0.00 0.00 67 1020.6
20260904084018 25 190 8.0 12.9 0.00 0.00 0.00 69 1021.1
20260904083526 25 190 0.0 14.5 0.00 0.00 0.00 69 1020.6
20260904083034 25 190 3.2 16.1 0.00 0.00 0.00 69 1020.6
20260904082535 25 190 11.3 0.0 0.00 0.00 0.00 69 1020.6
20260904082056 25 190 8.0 27.4 0.00 0.00 0.00 69 1020.1
20260904081523 25 190 12.9 22.5 0.00 0.00 0.00 70 1020.0
20260904081010 24 0.0 0.0 0.00 0.00 0.00 70 1019.1
20260904080519 24 0.0 0.0 0.00 0.00 0.00 71 1020.2
20260904080020 24 0.0 0.0 0.00 0.00 0.00 71 1019.9
20260904075521 24 0.0 0.0 0.00 0.00 0.00 71 1019.7
20260904075029 24 0.0 0.0 0.00 0.00 0.00 70 1020.0
20260904074537 24 0.0 0.0 0.00 0.00 0.00 70 1020.0
20260904073515 25 0.0 0.0 0.00 0.00 0.00 69 1019.8
20260904073024 25 0.0 0.0 0.00 0.00 0.00 67 1019.8
20260904072521 25 0.0 0.0 0.00 0.00 0.00 66 1019.8
20260904072021 25 0.0 0.0 0.00 0.00 0.00 65 1019.8
20260904071529 25 0.0 0.0 0.00 0.00 0.00 65 1020.1
20260904071016 25 0.0 0.0 0.00 0.00 0.00 64 1020.2
20260904070545 25 0.0 0.0 0.00 0.00 0.00 64 1020.2
20260904070031 25 0.0 0.0 0.00 0.00 0.00 64 1020.1
20260904065531 25 0.0 0.0 0.00 0.00 0.00 64 1020.1
20260904065012 25 0.0 0.0 0.00 0.00 0.00 64 1019.9
20260904064520 25 0.0 0.0 0.00 0.00 0.00 64 1019.7
20260904064029 25 0.0 0.0 0.00 0.00 0.00 64 1019.7
20260904063536 25 0.0 0.0 0.00 0.00 0.00 64 1019.5
20260904062529 25 0.0 0.0 0.00 0.00 0.00 64 1019.6
20260904062016 25 0.0 0.0 0.00 0.00 0.00 64 1019.5
20260904061524 25 0.0 0.0 0.00 0.00 0.00 64 1019.5
20260904061011 25 0.0 0.0 0.00 0.00 0.00 64 1019.7
20260904060525 25 0.0 0.0 0.00 0.00 0.00 64 1019.6
20260904060027 25 0.0 0.0 0.00 0.00 0.00 65 1019.9